OE3GWU-13 Weather Reports


time (UTC)temp
C
wind
direction
speed
KPH
gust
KPH
rain 1hr
cm
rain 24hr
cm
rain mn
cm
humidity
%
barometer
mb
20260507061004 7 204 4.8 9.7 0.00 0.00 0.00 90 1015.6
20260507060004 7 207 0.0 4.8 0.00 0.00 0.00 91 1015.6
20260507053005 7 294 1.6 9.7 0.00 0.00 0.00 92 1015.0
20260507050005 6 332 3.2 9.7 0.00 0.00 0.00 93 1014.6
20260507044004 6 306 4.8 8.0 0.00 0.00 0.00 94 1014.6
20260507043004 6 307 3.2 3.2 0.00 0.00 0.00 94 1014.6
20260507041004 6 334 3.2 9.7 0.00 0.00 0.00 94 1014.2
20260507034004 6 233 3.2 9.7 0.00 0.03 0.00 96 1013.9
20260507033004 6 275 3.2 9.7 0.00 0.03 0.00 96 1013.9
20260507025004 7 331 1.6 4.8 0.00 0.03 0.00 95 1013.5
20260507024004 7 271 3.2 4.8 0.00 0.03 0.00 95 1013.9
20260507023004 7 242 1.6 8.0 0.00 0.03 0.00 95 1013.5
20260507022004 7 188 1.6 9.7 0.00 0.03 0.00 95 1013.5
20260507014004 7 299 3.2 8.0 0.00 0.03 0.00 95 1013.5
20260507013004 7 216 3.2 4.8 0.00 0.03 0.00 95 1013.5
20260507012004 8 304 1.6 4.8 0.00 0.03 0.00 95 1013.5
20260507011004 8 192 3.2 8.0 0.00 0.03 0.00 95 1013.2
20260507010005 8 332 3.2 8.0 0.00 0.03 0.00 95 1013.2
20260507004004 8 345 0.0 4.8 0.00 0.03 0.00 95 1013.2
20260507001004 8 320 1.6 4.8 0.00 0.03 0.00 95 1013.2
20260507000004 8 205 3.2 8.0 0.00 0.03 0.00 95 1013.2
20260506234004 8 258 4.8 12.9 0.00 0.03 0.03 95 1013.2
20260506233004 8 344 3.2 9.7 0.00 0.03 0.03 95 1013.2
20260506232004 8 209 3.2 12.9 0.00 0.03 0.03 95 1013.2
20260506230004 8 201 4.8 9.7 0.00 0.03 0.03 94 1012.9
20260506225004 9 212 4.8 12.9 0.00 0.03 0.03 94 1012.9
20260506224004 9 335 3.2 8.0 0.00 0.03 0.03 94 1012.9
20260506222004 9 222 3.2 8.0 0.00 0.03 0.03 94 1012.9
20260506220004 9 181 3.2 11.3 0.00 0.03 0.03 95 1012.5
20260506215006 9 290 4.8 12.9 0.00 0.03 0.03 94 1012.2
20260506214004 9 227 3.2 11.3 0.00 0.03 0.03 93 1012.2
20260506212043 9 315 1.6 1.6 0.00 0.03 0.03 90 1011.9
20260506211004 9 322 0.0 1.6 0.00 0.03 0.03 90 1011.5
20260506210004 9 345 0.0 4.8 0.00 0.03 0.03 91 1011.5
20260506205004 9 236 3.2 4.8 0.00 0.05 0.03 92 1011.9
20260506203004 10 7 1.6 3.2 0.00 0.05 0.03 91 1011.2
20260506202004 10 329 1.6 3.2 0.00 0.05 0.03 89 1011.2
20260506195004 11 36 1.6 8.0 0.00 0.05 0.03 82 1010.8
20260506194004 11 143 4.8 8.0 0.00 0.05 0.03 83 1010.8
20260506193004 11 99 3.2 11.3 0.00 0.05 0.03 82 1010.7
20260506192004 12 194 1.6 8.0 0.00 0.05 0.03 80 1010.5
20260506190005 15 328 1.6 4.8 0.00 0.05 0.03 58 1009.8
20260506185004 15 333 4.8 11.3 0.00 0.05 0.03 57 1009.5
20260506184004 15 191 8.0 12.9 0.00 0.05 0.03 55 1009.5
20260506183005 15 262 8.0 12.9 0.00 0.05 0.03 55 1009.1
20260506182004 15 201 4.8 9.7 0.00 0.05 0.03 56 1008.5
20260506175004 16 275 4.8 8.0 0.00 0.05 0.03 52 1008.8
20260506171004 17 209 4.8 9.7 0.00 0.05 0.03 49 1008.5
20260506170004 17 210 8.0 9.7 0.00 0.05 0.03 48 1008.5
20260506164004 17 238 8.0 16.1 0.00 0.05 0.03 47 1008.5
20260506163004 18 204 11.3 16.1 0.00 0.05 0.03 48 1008.8
20260506162004 18 221 4.8 4.8 0.00 0.05 0.03 50 1008.8
20260506161004 18 208 3.2 9.7 0.00 0.05 0.03 50 1008.8
20260506160005 18 233 4.8 8.0 0.00 0.05 0.03 48 1008.8
20260506155004 18 196 3.2 8.0 0.00 0.05 0.03 49 1009.1
20260506154004 17 277 3.2 3.2 0.00 0.05 0.03 50 1009.1
20260506153004 17 211 3.2 4.8 0.00 0.05 0.03 49 1009.1
20260506151004 17 247 4.8 8.0 0.00 0.05 0.03 48 1009.6
20260506145004 18 274 3.2 8.0 0.00 0.05 0.03 49 1009.5
20260506143004 18 329 6.4 11.3 0.00 0.05 0.03 46 1009.8
20260506141004 18 315 3.2 16.1 0.00 0.05 0.03 44 1009.8
20260506140005 19 196 8.0 11.3 0.00 0.05 0.03 45 1009.8
20260506134004 21 156 4.8 9.7 0.00 0.05 0.03 43 1009.8
20260506133005 21 203 4.8 9.7 0.00 0.05 0.03 43 1009.8
20260506130005 18 186 9.7 16.1 0.00 0.05 0.03 47 1010.2
20260506125006 20 196 3.2 12.9 0.00 0.05 0.03 45 1010.2
20260506124004 18 230 9.7 12.9 0.00 0.05 0.03 46 1010.5
20260506123004 18 165 4.8 8.0 0.00 0.05 0.03 47 1010.8
20260506122004 21 223 4.8 9.7 0.00 0.05 0.03 44 1010.5
20260506121004 18 198 3.2 9.7 0.00 0.05 0.03 51 1010.8
20260506115004 18 170 8.0 19.3 0.00 0.05 0.03 47 1010.8
20260506112004 17 188 4.8 14.5 0.00 0.05 0.03 53 1011.5
20260506111004 17 248 11.3 14.5 0.00 0.05 0.03 53 1011.5
20260506110004 17 227 8.0 9.7 0.00 0.05 0.03 57 1011.5
20260506104004 17 222 9.7 11.3 0.00 0.05 0.03 60 1011.5
20260506103004 17 232 8.0 9.7 0.00 0.05 0.03 58 1011.9
20260506101004 16 243 3.2 9.7 0.00 0.05 0.03 61 1011.9
20260506093004 16 215 4.8 8.0 0.00 0.05 0.03 61 1011.9
20260506091004 16 196 3.2 4.8 0.00 0.05 0.03 60 1012.2
20260506090004 15 341 3.2 4.8 0.00 0.05 0.03 62 1012.2
20260506082004 15 253 6.4 9.7 0.00 0.05 0.03 71 1012.5
20260506072004 12 215 4.8 9.7 0.00 0.05 0.03 77 1012.2
20260506062004 11 250 3.2 4.8 0.00 0.05 0.03 87 1012.5